Content
SEND FEEDBACK

Daily
Averages
Monthly
Summary
United States of America

ITHACA, NEW YORK


Home > North America > United States > New York
Elevation: 1094 feet     Latitude: 42 29N     Longitude: 076 28W

WEATHER
 
SELECT A DAY
Number of Records: 159,330;   Date Range: 1/1/95 - 9/20/14
 
SHARE

PRINT THIS DATA

[ ← Previous Day ]
WEATHER ALMANAC - AUGUST 18, 2013
[ Next Day → ]
[ °C ]   °F
Weather ElementAverageHighLow
Temperature64.3 °F73.9 °F (12:56 pm)56.8 °F (4:56 am)
Dewpoint57.5 °F61.9 °F (7:56 pm)54.9 °F (4:56 am)
Humidity80.3 %97 % (9:56 pm)53 % (1:56 pm)
Barometer30.24 in30.30 in (7:56 am)30.16 in (11:56 pm)
Wind Speed3.1 mph6.9 mph (3:56 pm)
Weather ElementAverage
Visibility9.9 mi
Wind DirectionE (86.3 °)

Weather ElementTotal
Precipitation---
Cooling Degree Days0.3 (Base 65)
Growing Degree Days15.4 (Base 50)
Averaged from 24 records on August 18, 2013
WEATHER CONDITIONS BREAKOUT
WIND DIRECTION BREAKOUT
WEATHER BY HOUR - AUGUST 18, 2013
[ °C ]   °F
Local TimeTemperatureDewpointHumidityBarometerVisibilityWind DirectionWind SpeedGust SpeedPrecipitationEventsConditions
1:56 AM59.0 °F56.8 °F93 %30.28 in10.0 miEast (90°)5.8 mphClear
2:56 AM57.9 °F55.9 °F93 %30.28 in10.0 miEast (90°)3.5 mphClear
3:56 AM57.9 °F55.9 °F93 %30.27 in10.0 miEast (100°)4.6 mphClear
4:56 AM56.8 °F54.9 °F93 %30.26 in10.0 miEast (80°)5.8 mphClear
5:56 AM56.8 °F54.9 °F93 %30.27 in10.0 miCalmClear
6:21 AM57.2 °F55.4 °F94 %30.29 in10.0 miEast (90°)4.6 mphClear
6:56 AM56.8 °F54.9 °F93 %30.29 in10.0 miEast (80°)4.6 mphClear
7:56 AM57.9 °F54.9 °F90 %30.30 in10.0 miEast (90°)3.5 mphClear
8:56 AM61.0 °F57.9 °F90 %30.30 in10.0 miEast (100°)3.5 mphClear
9:56 AM63.9 °F57.9 °F81 %30.30 in10.0 miCalmClear
10:56 AM68.0 °F59.0 °F73 %30.29 in10.0 miCalmClear
11:56 AM72.0 °F57.9 °F61 %30.27 in10.0 miCalmClear
12:56 PM73.9 °F59.0 °F59 %30.26 in10.0 miSouth (180°)3.5 mphClear
1:56 PM73.9 °F55.9 °F53 %30.24 in10.0 miSouth (190°)3.5 mphPartly Cloudy
2:56 PM73.9 °F59.0 °F59 %30.22 in10.0 miSouth (190°)5.8 mphPartly Cloudy
3:56 PM72.9 °F56.8 °F57 %30.19 in10.0 miSouth (180°)6.9 mphClear
4:56 PM73.9 °F57.9 °F57 %30.19 in10.0 miSSW (210°)6.9 mphPartly Cloudy
5:56 PM72.9 °F59.0 °F62 %30.19 in10.0 miSouth (190°)4.6 mphMostly Cloudy
6:56 PM72.0 °F59.0 °F64 %30.18 in10.0 miCalmClear
7:56 PM63.9 °F61.9 °F93 %30.18 in10.0 miCalmClear
8:56 PM61.9 °F59.0 °F90 %30.17 in10.0 miCalmClear
9:56 PM59.9 °F59.0 °F97 %30.17 in10.0 miEast (90°)3.5 mphClear
10:56 PM59.9 °F59.0 °F97 %30.17 in8.0 miCalmClear
11:56 PM59.9 °F57.9 °F93 %30.16 in10.0 miESE (120°)3.5 mphClear
Hourly data recorded from KITH, located miles away from Ithaca, New York







STORIES FROM OUR PARTNERS